STARLINK-4671 (53593 NORAD) Tracking and Keplerian Element Data

This shows tracking and keplerian element data for the satellite.

Feedback or suggestion? Click here.




ElementValue
Catalog53593
NameSTARLINK-4671
Epoch Orbit130
Epoch Day324.91667824
Epoch Year2022
RAAN252.6357
Inclination53.2166
Eccentricity0.000155
Argument of Perigee71.1978
Mean Anonmoly293.2002
Mean Motion15.08867644
Decay Rate-0.00043365
L11 53593U 22104F 22324.91667824 -.00043365 00000+0 -27210-2 0 9996
L22 53593 53.2166 252.6357 0001550 71.1978 293.2002 15.08867644 1305



Live tracking and technical data element details for STARLINK-4671 (NORAD 53593). STARLINK-4671 can be tracked NOW for your location showing map with azimuth and elevation plus other details from your city location.







IsCatalogInMostPopularTable: catalog: 53593, numindb: 7
Update: records affected: 1



GetName: 53593 STARLINK-4671

Hit Count: updated at: Thu, 08 Dec 2022 20:41:12 GMT